Location: Daytona Beach
(29.2106°N, 81.0231°W)
Time: 06:33:20
(UTC-04:00)

Tianhe-1 - Visible Passes

Search period start: 22 June 2021 00:00
Search period end: 02 July 2021 00:00
Orbit: 375 x 386 km, 41.5° (Epoch: 22 June)

Date Brightness Start Highest point End Pass type
(mag) Time Alt. Az. Time Alt. Az. Time Alt. Az.
22 Jun 3.7 04:33:29 13° NW 04:34:27 14° NNW 04:36:16 10° NNE visible
23 Jun 4.4 03:35:07 13° NNE 03:35:07 13° NNE 03:35:43 10° NNE visible
24 Jun 4.1 04:08:52 11° NNW 04:09:29 11° N 04:10:27 10° N visible
26 Jun 4.2 05:21:04 10° N 05:22:17 12° NNE 05:23:30 10° NE visible
27 Jun 3.6 05:55:52 10° NNW 05:58:27 23° NNE 06:01:03 10° ENE visible
28 Jun 4.1 04:55:17 10° NNW 04:57:15 15° NNE 04:59:13 10° ENE visible
29 Jun 4.4 03:54:52 10° N 03:55:58 11° NNE 03:57:04 10° NNE visible
29 Jun 2.6 05:30:19 10° NW 05:33:17 38° NNE 05:36:15 10° E visible
30 Jun 3.6 04:29:36 10° NNW 04:32:09 22° NNE 04:34:40 10° ENE visible
01 Jul 4.6 03:32:33 11° NE 03:32:33 11° NE 03:32:48 10° NE visible
01 Jul 1.2 05:04:52 10° NW 05:08:00 75° NNE 05:11:08 10° ESE visible
01 Jul 1.4 21:34:37 10° SW 21:37:33 40° SE 21:38:57 24° E visible
